Location: Saratoga Springs
(43.0831°N, 73.7850°W)
Time: 13:46:44
(UTC-04:00)

Transit 4A - Pass Details

Date: 26 April 2024
Orbit: 871 x 971 km, 66.8° (Epoch: 20 May)

Event Time Altitude Azimuth Distance (km) Brightness Sun altitude
Rises 20:50:50 0° 329° (NNW) 3,468 12.1 -10.6°
Reaches altitude 10° 20:53:19 10° 331° (NNW) 2,528 11.2 -11.0°
Maximum altitude 20:59:10 81° 58° (ENE) 894 7.8 -11.9°
Enters shadow 21:04:12 15° 146° (SE) 2,229 9.3 -12.7°
